1363222233482,0.000158826
1363222293482,0.000158559
1363222353482,0.000159161
1363222413482,0.000159823
1363222473482,0.000159488
1363225833494,0.000158385
1363225893494,0.000158157
1363225953494,0.000159034
1363226013494,0.000159613
1363226073494,0.000157493
1363229433506,0.000158997
1363229493506,0.000158169
1363229553506,0.000158299
1363229613506,0.000158221
1363229673506,0.000157822
1363233033518,0.000157631
1363233093518,0.000158656
1363233153518,0.000158300
1363233213518,0.000158488
1363233273518,0.000157713
1363236633529,0.000157434
1363236693529,0.000157255
1363236753529,0.000159229
1363236813529,0.000157675
1363236873529,0.000154855
1363240233540,0.000163330
1363240293540,0.000165999
1363240353540,0.000166220
1363240413540,0.000160748
1363240473540,0.000160692
1363258233594,0.000156257
1363258293594,0.000158565
1363258353595,0.000154694
1363258413595,0.000155409
1363258473595,0.000155214
1363261833606,0.000155937
1363261893606,0.000158271
1363261953606,0.000155244
1363262013606,0.000156696
1363262073606,0.000157424
1363265433618,0.000154886
1363265493618,0.000155916
1363265553618,0.000156401
1363265613618,0.000157230
1363265673618,0.000154263
1363269033629,0.000154059
1363269093629,0.000155266
1363269153629,0.000156228
1363269213629,0.000155857
1363269273629,0.000156174
1363272633641,0.000155387
1363272693641,0.000154381
1363272753641,0.000155692
1363272813641,0.000153534
1363272873641,0.000154188
1363276233653,0.000155163
1363276293653,0.000156594
1363276353653,0.000156792
1363276413653,0.000154911
1363276473653,0.000155803
1363279833664,0.000155285
1363279893664,0.000153901
1363279953664,0.000154137
1363280013664,0.000154999
1363280073664,0.000154774
1363283433676,0.000155793
1363283493676,0.000156340
1363283553676,0.000155620
1363283613676,0.000156362
1363283673676,0.000155387
1363287033687,0.000156510
1363287093687,0.000155594
1363287153687,0.000155653
1363287213687,0.000154748
1363287273687,0.000153756
1363290633698,0.000156142
1363290693698,0.000156165
1363290753698,0.000154799
1363290813698,0.000155485
1363290873698,0.000155237
1363294233710,0.000156639
1363294293710,0.000158194
1363294353710,0.000156400
1363294413710,0.000157761
1363294473710,0.000156746
1363297833721,0.000158199
1363297893721,0.000160451
1363297953721,0.000159247
1363298013721,0.000159640
1363298073721,0.000157912
1363301433733,0.000156943
1363301493733,0.000156162
1363301553733,0.000158366
1363301613733,0.000157111
1363301673733,0.000155169
1363305033744,0.000158254
1363305093744,0.000157326
1363305153744,0.000156857
1363305213744,0.000157691
1363305273744,0.000157491
